Location: Columbia
(38.9520°N, 92.3340°W)
Time: 04:30:38
(UTC-06:00)

Daily predictions for brighter satellites

Satellite Brightness Start Highest point End
(mag) Time Altitude Azimuth Time Altitude Azimuth Time Altitude Azimuth
CZ-3 Stage 3 4.2 04:12:38 17° SE 04:12:38 17° SE 04:15:12 10° ESE
NOSS 3-1 (C) 4.1 04:39:11 51° NNW 04:41:26 76° NE 04:49:50 10° SE
Cosmos 2227 4.2 04:49:55 74° ENE 04:49:55 74° ENE 04:55:12 10° NNE
Cosmos 2233 Rocket 4.1 04:53:16 63° NNW 04:53:16 63° NNW 04:58:34 10° N
Tiangong 2 4.1 04:59:08 16° ENE 04:59:08 16° ENE 04:59:51 10° ENE
SL-16 R/B 4.0 05:01:28 18° S 05:01:28 18° S 05:02:57 10° S
Cosmos 2346 Rocket 4.3 04:57:07 50° N 04:58:50 86° W 05:04:53 10° S
BREEZE-M DEB (TANK) 4.3 04:52:19 36° WNW 04:58:54 74° SW 05:04:00 10° SE
Cosmos 1538 Rocket 4.2 05:11:43 54° SSW 05:11:43 54° SSW 05:16:03 10° S
SeaSat 1 3.5 05:06:09 10° NNE 05:09:00 33° N 05:09:00 33° N
Ariane Rocket 4.4 05:08:48 10° NNE 05:13:33 38° E 05:18:17 10° SSE
Cosmos 2221 2.7 05:12:06 10° S 05:16:23 71° E 05:20:41 10° NNE
SL-8 R/B 3.6 05:17:14 75° NNW 05:17:36 82° NNE 05:22:24 10° ESE
Cosmos 923 Rocket 4.3 05:15:15 24° N 05:18:22 68° ENE 05:23:35 10° SSE
DELTA 2 R/B (1) 3.5 05:18:45 61° WSW 05:19:46 86° SSE 05:25:21 10° E
SKYMED 2 3.7 05:16:02 10° SSE 05:20:20 71° ENE 05:22:33 28° N
Cosmos 1680 Rocket 4.0 05:20:35 14° N 05:25:07 59° ENE 05:30:21 10° SSE
CZ-4 R/B 4.4 05:23:35 10° NE 05:26:23 18° E 05:29:14 10° SE
Cosmos 1703 3.7 05:25:13 20° N 05:27:45 60° E 05:31:39 10° SSE
Cosmos 2151 4.1 05:29:47 30° SSW 05:29:47 30° SSW 05:32:09 10° S
Meteor 1-16 Rocket 4.1 05:27:37 48° WSW 05:28:20 52° WNW 05:33:31 10° N
Cosmos 2344 4.2 05:24:06 10° SSW 05:31:37 59° ESE 05:39:45 10° NE
Cosmos 1943 3.6 05:30:43 11° NNW 05:36:06 63° ENE 05:41:43 10° SE
DMSP B5D1-3 4.4 05:36:59 10° SSE 05:42:07 88° W 05:47:14 10° NNW
Cosmos 1184 Rocket 3.0 05:43:30 22° N 05:45:29 70° E 05:48:46 10° SSE
Meteor 1-11 4.4 05:41:07 12° NNW 05:46:18 48° W 05:51:49 10° SSW
Gbstr 26 Del rocket 3.6 05:43:30 23° SW 05:46:55 88° NNW 05:53:25 10° NE
Cosmos 773 Rocket 4.3 05:45:20 33° WNW 05:47:03 43° WSW 05:52:02 10° S
Cosmos 1464 Rocket 4.0 05:43:56 10° SSW 05:50:10 62° W 05:56:23 10° N
Cosmos 2263 Rocket 2.3 05:47:01 10° SSW 05:52:41 81° ESE 05:58:24 10° NNE
NOSS 3-1 (A) 4.2 05:48:36 20° NW 05:54:07 55° WSW 06:02:16 10° S
Cosmos 1340 Rocket 3.8 05:57:16 27° WSW 05:57:16 27° WSW 06:00:01 10° SSW
Coronas F rocket 1.4 05:56:55 31° NNE 05:57:51 61° E 06:00:12 10° SSE
Cosmos 389 Rocket 2.5 05:56:01 10° S 05:59:40 89° E 06:03:22 10° N
Cosmos 2112 Rocket 4.0 05:56:08 10° NNW 06:01:30 76° WSW 06:06:49 10° S
Cosmos 1603 4.3 05:59:36 23° WNW 06:02:14 35° WSW 06:07:18 10° SSW
ATLAS 2AS CENTAUR R/B 3.5 05:54:49 10° NNW 06:02:48 60° NE 06:10:13 10° SE
ATLAS 3B CENTAUR R/B 4.4 06:00:43 10° SW 06:06:17 35° SSE 06:19:48 10° E
COSMO-SKYMED 1 3.3 06:04:34 10° SSW 06:08:27 32° W 06:11:07 17° NW
Cosmos 2298 Rocket 4.3 06:04:37 10° S 06:09:53 72° ESE 06:15:10 10° NNE
CSL-04 Rocket 3.5 06:04:58 10° N 06:10:16 74° WNW 06:15:31 10° SSW
CZ-2C R/B 3.0 06:07:29 10° NNE 06:12:00 57° E 06:16:30 10° S
Cosmos 1805 Rocket 4.0 06:08:05 10° NNW 06:12:12 40° W 06:16:15 10° SSW
Cosmos 1908 3.1 06:08:33 10° SSW 06:12:21 67° W 06:16:10 10° N
Milstar 3 Cent rocket 4.2 06:06:05 10° SW 06:13:24 28° S 06:18:05 10° ESE
Cosmos 2058 4.2 06:14:29 20° W 06:14:29 20° W 06:17:29 10° SW
USA 234 4.3 06:10:11 10° E 06:16:06 38° NNE 06:22:00 10° NW
GPS 2-05 Rocket1 4.2 06:15:05 17° WSW 06:16:44 25° SSW 06:19:29 10° SE
APEX 3.0 06:17:03 10° SW 06:20:44 49° WNW 06:23:46 10° NNE
Cosmos 1300 4.0 06:20:45 10° SSE 06:24:22 44° E 06:28:02 10° NNE
Sich 1 3.3 06:22:08 10° NNW 06:26:15 43° W 06:30:18 10° SSW
Cosmos 2228 Rocket 3.1 06:28:45 10° SSW 06:33:05 56° W 06:37:25 10° N
Tiangong 2 1.7 06:31:09 16° WNW 06:33:23 42° N 06:36:23 10° ENE
PSLV R/B 3.3 06:32:31 15° WNW 06:35:18 75° NNE 06:38:40 10° E
Cosmos 1633 Rocket 3.5 06:31:48 10° NNW 06:35:51 38° W 06:39:52 10° SSW
Cosmos 1328 Rocket 3.6 06:32:21 10° SSW 06:36:35 54° W 06:40:53 10° N
Cosmos 1626 3.4 06:34:59 10° NW 06:37:49 21° W 06:40:38 10° SW
SMAP 3.0 06:34:14 10° NNE 06:38:55 86° WNW 06:43:33 10° SSW
Cosmos 1151 Rocket 3.2 06:34:44 10° S 06:39:00 77° E 06:43:15 10° N
Iridium 4 Rocket 3.6 06:36:56 10° N 06:41:21 68° E 06:46:09 10° S
Helios 1B rocket 2.6 06:41:36 10° SSE 06:45:41 76° ENE 06:49:47 10° N
Cosmos 1634 Rocket 4.0 06:39:24 10° S 06:45:42 80° W 06:51:59 10° N
IRS-1A Rocket 4.4 06:40:17 10° N 06:46:02 56° WNW 06:51:38 10° SSW
SPOT 3 Rocket 3.6 06:43:41 10° NNE 06:48:56 89° WNW 06:54:09 10° SSW
Cosmos 1515 Rocket 3.7 06:44:44 10° SSW 06:49:02 53° W 06:53:25 10° N
SJ-7 4.4 06:47:08 10° N 06:51:08 60° WNW 06:55:08 10° SSW
Ariane Rocket 4.0 06:48:13 10° NNW 06:52:16 24° WNW 06:56:19 10° WSW
Meteor 1-29 3.2 06:51:58 10° SSE 06:55:27 75° ENE 06:58:58 10° N
